When you browse on this site, cookies collect data to enhance your experience and personalize the content and advertising you see.
Visit our Privacy Policy to learn more. By continuing to use the site, you agree to this use of cookies and data.
  • In Latvia
  • List of Countries
  • For 7 days
  • Water Temperature
  • Weather Map
  • Weather Widgets
  • user-avatar
    Login

    Hourly Weather Hulive

    Today, 28 May, Thursday

    Time Temperature Precipitation Wind Pressure Humidity
    00:00 +13°C° 1.1 mm 5 mps 752 mmHg 94%
    01:00 +13°C° 1.1 mm 5 mps 752 mmHg 95%
    02:00 +13°C° 0 mm 5 mps 751 mmHg 96%
    03:00 +13°C° 0.3 mm 6 mps 751 mmHg 94%
    04:00 +13°C° 0.3 mm 6 mps 750 mmHg 92%
    05:00 +12°C° 0.3 mm 7 mps 750 mmHg 89%
    06:00 +15°C° 0 mm 7 mps 749 mmHg 84%
    07:00 +17°C° 0 mm 8 mps 749 mmHg 78%
    08:00 +18°C° 0 mm 8 mps 749 mmHg 72%
    09:00 +19°C° 0.1 mm 9 mps 749 mmHg 70%
    10:00 +21°C° 0.1 mm 9 mps 748 mmHg 68%
    11:00 +22°C° 0.1 mm 9 mps 748 mmHg 67%
    12:00 +23°C° 0 mm 9 mps 748 mmHg 65%
    13:00 +24°C° 0 mm 8 mps 748 mmHg 64%
    14:00 +26°C° 0 mm 8 mps 747 mmHg 62%
    15:00 +26°C° 0 mm 7 mps 747 mmHg 65%
    16:00 +24°C° 0 mm 6 mps 747 mmHg 67%
    17:00 +25°C° 0 mm 5 mps 747 mmHg 70%
    18:00 +22°C° 0 mm 4 mps 747 mmHg 75%
    19:00 +21°C° 0 mm 3 mps 747 mmHg 80%
    20:00 +19°C° 0 mm 2 mps 747 mmHg 85%
    21:00 +18°C° 0.9 mm 2 mps 747 mmHg 88%
    22:00 +18°C° 0.9 mm 2 mps 747 mmHg 90%
    23:00 +17°C° 0.9 mm 2 mps 748 mmHg 92%

    Tomorrow, 29 May, Friday

    Time Temperature Precipitation Wind Pressure Humidity
    00:00 +17°C° 0.7 mm 2 mps 747 mmHg 93%
    01:00 +16°C° 0.7 mm 1 mps 747 mmHg 94%
    02:00 +16°C° 0.7 mm 1 mps 747 mmHg 95%
    03:00 +16°C° 0.3 mm 1 mps 747 mmHg 95%
    04:00 +16°C° 0.3 mm 2 mps 747 mmHg 95%
    05:00 +16°C° 0.3 mm 2 mps 747 mmHg 94%
    06:00 +16°C° 0.3 mm 2 mps 747 mmHg 92%
    07:00 +17°C° 0.3 mm 2 mps 747 mmHg 91%
    08:00 +17°C° 0.3 mm 2 mps 746 mmHg 89%
    09:00 +18°C° 0.3 mm 2 mps 746 mmHg 87%
    10:00 +19°C° 0.3 mm 2 mps 746 mmHg 86%
    11:00 +20°C° 0.3 mm 2 mps 746 mmHg 84%
    12:00 +21°C° 0 mm 2 mps 745 mmHg 78%
    13:00 +24°C° 0 mm 2 mps 745 mmHg 71%
    14:00 +25°C° 0 mm 2 mps 745 mmHg 65%
    15:00 +25°C° 0.1 mm 2 mps 744 mmHg 69%
    16:00 +24°C° 0.1 mm 2 mps 744 mmHg 73%
    17:00 +24°C° 0.1 mm 2 mps 744 mmHg 76%
    18:00 +21°C° 0.2 mm 2 mps 744 mmHg 81%
    19:00 +19°C° 0.2 mm 3 mps 744 mmHg 85%
    20:00 +18°C° 0.2 mm 3 mps 744 mmHg 89%
    21:00 +17°C° 0.8 mm 3 mps 743 mmHg 90%
    22:00 +17°C° 0.8 mm 3 mps 743 mmHg 91%
    23:00 +16°C° 0.8 mm 3 mps 743 mmHg 92%

    Day after tomorrow, 30 May, Saturday

    Time Temperature Precipitation Wind Pressure Humidity
    00:00 +16°C° 1.2 mm 3 mps 743 mmHg 93%
    01:00 +15°C° 1.2 mm 4 mps 743 mmHg 94%
    02:00 +15°C° 1.2 mm 4 mps 743 mmHg 95%
    03:00 +14°C° 2.8 mm 4 mps 743 mmHg 95%
    04:00 +14°C° 2.8 mm 5 mps 743 mmHg 95%
    05:00 +14°C° 2.8 mm 5 mps 742 mmHg 95%
    06:00 +14°C° 1.3 mm 5 mps 743 mmHg 92%
    07:00 +14°C° 1.3 mm 5 mps 743 mmHg 89%
    08:00 +15°C° 1.3 mm 5 mps 743 mmHg 87%
    09:00 +16°C° 0.1 mm 5 mps 743 mmHg 81%
    10:00 +17°C° 0.1 mm 6 mps 744 mmHg 75%
    11:00 +20°C° 0.1 mm 6 mps 744 mmHg 69%
    12:00 +20°C° 0.4 mm 6 mps 744 mmHg 69%
    13:00 +20°C° 0.4 mm 6 mps 744 mmHg 69%
    14:00 +20°C° 0.4 mm 6 mps 744 mmHg 69%
    15:00 +19°C° 0.2 mm 6 mps 745 mmHg 70%
    16:00 +19°C° 0.2 mm 6 mps 745 mmHg 71%
    17:00 +17°C° 0.2 mm 7 mps 745 mmHg 72%
    18:00 +16°C° 0 mm 6 mps 745 mmHg 77%
    19:00 +15°C° 0 mm 5 mps 745 mmHg 81%
    20:00 +13°C° 0 mm 4 mps 746 mmHg 85%
    21:00 +13°C° 0 mm 4 mps 746 mmHg 86%
    22:00 +13°C° 0 mm 5 mps 746 mmHg 87%
    23:00 +12°C° 0 mm 5 mps 747 mmHg 87%

    31 May, Sunday

    Time Temperature Precipitation Wind Pressure Humidity
    00:00 +12°C° 0 mm 5 mps 747 mmHg 89%
    01:00 +11°C° 0 mm 4 mps 747 mmHg 90%
    02:00 +11°C° 0 mm 4 mps 747 mmHg 91%
    03:00 +11°C° 0 mm 4 mps 747 mmHg 90%
    04:00 +11°C° 0 mm 4 mps 747 mmHg 90%
    05:00 +12°C° 0 mm 4 mps 747 mmHg 89%
    06:00 +13°C° 0.1 mm 5 mps 747 mmHg 85%
    07:00 +14°C° 0.1 mm 5 mps 747 mmHg 81%
    08:00 +16°C° 0.1 mm 5 mps 747 mmHg 76%
    09:00 +17°C° 0.6 mm 6 mps 747 mmHg 73%
    10:00 +19°C° 0.6 mm 6 mps 747 mmHg 71%
    11:00 +20°C° 0.6 mm 6 mps 748 mmHg 68%
    12:00 +20°C° 0.7 mm 6 mps 747 mmHg 68%
    13:00 +20°C° 0.7 mm 6 mps 747 mmHg 67%
    14:00 +20°C° 0.7 mm 6 mps 747 mmHg 67%
    15:00 +20°C° 0.7 mm 6 mps 747 mmHg 70%
    16:00 +20°C° 0.7 mm 5 mps 747 mmHg 73%
    17:00 +19°C° 0.7 mm 5 mps 747 mmHg 76%
    18:00 +18°C° 0.5 mm 4 mps 747 mmHg 79%
    19:00 +17°C° 0.5 mm 4 mps 747 mmHg 82%
    20:00 +16°C° 0.5 mm 3 mps 748 mmHg 86%
    21:00 +14°C° 0 mm 3 mps 748 mmHg 88%
    22:00 +13°C° 0 mm 3 mps 748 mmHg 89%
    23:00 +13°C° 0 mm 3 mps 748 mmHg 91%

    1 June, Monday

    Time Temperature Precipitation Wind Pressure Humidity
    00:00 +14°C° 0 mm 2 mps 748 mmHg 91%
    01:00 +13°C° 0 mm 2 mps 748 mmHg 91%
    02:00 +13°C° 0 mm 2 mps 748 mmHg 92%
    03:00 +13°C° 0 mm 2 mps 748 mmHg 91%
    04:00 +14°C° 0 mm 2 mps 748 mmHg 90%
    05:00 +14°C° 0 mm 1 mps 748 mmHg 89%
    06:00 +16°C° 0.1 mm 2 mps 748 mmHg 84%
    07:00 +18°C° 0.1 mm 2 mps 748 mmHg 78%
    08:00 +20°C° 0.1 mm 2 mps 748 mmHg 72%
    09:00 +21°C° 0.9 mm 2 mps 748 mmHg 67%
    10:00 +23°C° 0.9 mm 2 mps 748 mmHg 62%
    11:00 +24°C° 0.9 mm 2 mps 748 mmHg 57%
    12:00 +24°C° 1 mm 2 mps 748 mmHg 55%
    13:00 +24°C° 1 mm 2 mps 747 mmHg 53%
    14:00 +25°C° 1 mm 2 mps 747 mmHg 51%
    15:00 +24°C° 0.5 mm 1 mps 747 mmHg 55%
    16:00 +24°C° 0.5 mm 1 mps 747 mmHg 59%
    17:00 +24°C° 0.5 mm 1 mps 747 mmHg 62%
    18:00 +22°C° 0.6 mm 1 mps 747 mmHg 67%
    19:00 +20°C° 0.6 mm 1 mps 747 mmHg 72%
    20:00 +17°C° 0.6 mm 2 mps 747 mmHg 77%
    21:00 +16°C° 0.1 mm 2 mps 747 mmHg 81%
    22:00 +16°C° 0.1 mm 2 mps 747 mmHg 84%
    23:00 +15°C° 0.1 mm 2 mps 747 mmHg 88%

    2 June, Tuesday

    Time Temperature Precipitation Wind Pressure Humidity
    00:00 +15°C° 0 mm 2 mps 746 mmHg 90%
    01:00 +14°C° 0 mm 2 mps 746 mmHg 92%
    02:00 +14°C° 0 mm 2 mps 746 mmHg 94%
    03:00 +13°C° 0.1 mm 3 mps 746 mmHg 95%
    04:00 +12°C° 0.1 mm 4 mps 746 mmHg 95%
    05:00 +12°C° 0.1 mm 4 mps 746 mmHg 96%
    06:00 +13°C° 0.1 mm 4 mps 746 mmHg 94%
    07:00 +13°C° 0.1 mm 4 mps 746 mmHg 93%
    08:00 +14°C° 0.1 mm 4 mps 746 mmHg 92%
    09:00 +14°C° 0.1 mm 5 mps 747 mmHg 91%
    10:00 +14°C° 0.1 mm 5 mps 747 mmHg 90%
    11:00 +14°C° 0.1 mm 6 mps 747 mmHg 88%
    12:00 +15°C° 0 mm 6 mps 747 mmHg 84%
    13:00 +16°C° 0 mm 5 mps 747 mmHg 80%
    14:00 +17°C° 0 mm 5 mps 747 mmHg 76%
    15:00 +17°C° 0.2 mm 5 mps 747 mmHg 77%
    16:00 +17°C° 0.2 mm 5 mps 747 mmHg 77%
    17:00 +16°C° 0.2 mm 5 mps 747 mmHg 78%
    18:00 +15°C° 0 mm 5 mps 747 mmHg 81%
    19:00 +14°C° 0 mm 4 mps 747 mmHg 84%
    20:00 +12°C° 0 mm 4 mps 748 mmHg 87%
    21:00 +12°C° 0 mm 4 mps 748 mmHg 89%
    22:00 +11°C° 0 mm 3 mps 748 mmHg 90%
    23:00 +11°C° 0 mm 3 mps 748 mmHg 92%
    Show more